Flag for Turkey Weather past 2 weeks in Istanbul, Turkey

Now
68 °F

Passing clouds.


Feels Like: 68 °F
Forecast: 59 / 64 °F
Wind: 5 mph from South

Location: Istanbul Ataturk Airport

Current Time: Oct 24, 2014 at 12:00:39 PM

Latest Report: Oct 24, 2014 at 11:20 AM


Visibility: N/A

Pressure: 29.95 "Hg

Humidity: 64%

Dew point: 55 °F

Location of IstanbulLocation

Historic Weather in Istanbul — Graph

°F

Istanbul temperature yesterday

Maximum temperature yesterday: 79 °F (at 6:20 PM)
Minimum temperature yesterday: 64 °F (at 11:20 PM)
Average temperature yesterday: 71 °F

Past Weeks' High & Low Weather Summary

 TemperatureHumidityPressure
High79 °F (Oct 23, 6:20 PM)94% (Oct 13, 6:50 AM)30.36 "Hg (Oct 13, 6:50 AM)
Low48 °F (Oct 20, 6:20 AM)39% (Oct 23, 6:20 PM)29.62 "Hg (Oct 23, 4:50 PM)
Average65 °F70%30.02 "Hg
* Reported Oct 9 10:20 AM — Oct 24 10:50 AM, Istanbul, Weather by CustomWeather, © 2014

Note: Actual official high and low records may vary slightly from our data, if they occured in-between our weather recording intervals... More about our weather records

Advertising

Istanbul weather history for previous 24 hours

 ConditionsComfort  
Time TempWeatherWind HumidityBarometerVisibility
10:50 AM
Oct 24
68 °FPassing clouds.6 mph60%29.92 "HgN/A
10:20 AM66 °FPassing clouds.6 mph68%29.92 "HgN/A
9:50 AM66 °FPassing clouds.5 mph60%29.92 "HgN/A
9:20 AM64 °FSunny.3 mph78%29.89 "Hg10 mi
8:50 AM64 °FSunny.2 mph78%29.89 "Hg10 mi
8:20 AM61 °FPassing clouds.5 mph88%29.89 "HgN/A
7:50 AM63 °FPassing clouds.6 mph88%29.89 "HgN/A
7:20 AM63 °FPassing clouds.5 mph88%29.86 "HgN/A
6:50 AM63 °FPassing clouds.5 mph83%29.86 "HgN/A
6:20 AM63 °FPassing clouds.5 mph83%29.86 "HgN/A
5:50 AM63 °FPartly cloudy.5 mph83%29.83 "HgN/A
5:20 AM64 °FPartly cloudy.7 mph88%29.83 "HgN/A
4:50 AM64 °FPassing clouds.8 mph83%29.83 "HgN/A
4:20 AM64 °FPartly cloudy.5 mph88%29.83 "HgN/A
3:50 AM66 °FPassing clouds.7 mph78%29.80 "HgN/A
3:20 AM66 °FPassing clouds.7 mph78%29.80 "HgN/A
2:50 AM66 °FPassing clouds.12 mph78%29.80 "HgN/A
2:20 AM66 °FPassing clouds.13 mph78%29.80 "HgN/A
1:50 AM66 °FPartly cloudy.15 mph78%29.80 "HgN/A
1:20 AM66 °FPartly cloudy.8 mph83%29.80 "HgN/A
12:50 AM66 °FPartly cloudy.14 mph78%29.77 "HgN/A
12:20 AM66 °FSprinkles. Partly cloudy.12 mph78%29.77 "HgN/A
11:50 PM
Oct 23
64 °FSprinkles. Partly cloudy.5 mph83%29.77 "Hg5 mi
11:20 PM64 °FSprinkles. Partly cloudy.9 mph83%29.77 "HgN/A
10:50 PM66 °FSprinkles. Partly cloudy.13 mph78%29.74 "HgN/A
10:20 PM70 °FPartly cloudy.15 mph69%29.74 "HgN/A
9:50 PM68 °FSprinkles. Partly cloudy.8 mph73%29.71 "HgN/A
9:20 PM72 °FSprinkles. Passing clouds.15 mph61%29.71 "Hg5 mi
8:50 PM72 °FPartly cloudy.9 mph61%29.68 "HgN/A
8:20 PM73 °FPartly cloudy.8 mph50%29.65 "HgN/A
7:50 PM75 °FPartly cloudy.8 mph47%29.65 "HgN/A
7:20 PM75 °FPartly cloudy.6 mph50%29.65 "HgN/A
6:50 PM75 °FBroken clouds.7 mph41%29.65 "HgN/A
6:20 PM79 °FBroken clouds.6 mph39%29.62 "HgN/A
5:50 PM75 °FBroken clouds.12 mph44%29.62 "HgN/A
5:20 PM73 °FBroken clouds.7 mph53%29.65 "HgN/A
4:50 PM77 °FBroken clouds.9 mph44%29.62 "HgN/A
4:20 PM75 °FBroken clouds.8 mph44%29.65 "HgN/A
3:50 PM75 °FPartly sunny.8 mph47%29.65 "HgN/A
3:20 PM75 °FScattered clouds.8 mph47%29.65 "HgN/A
2:50 PM75 °FPartly sunny.9 mph47%29.65 "HgN/A
2:20 PM75 °FScattered clouds.9 mph47%29.65 "HgN/A
1:50 PM73 °FPartly sunny.9 mph53%29.65 "HgN/A
1:20 PM73 °FPartly sunny.13 mph47%29.68 "HgN/A
12:50 PM73 °FPartly sunny.14 mph47%29.68 "HgN/A
12:20 PM73 °FScattered clouds.12 mph47%29.68 "HgN/A
Weather by CustomWeather, © 2014

See weather overviewHow to use our weather pages